TimePST,TemperatureF,Dew PointF,Humidity,Sea Level PressureIn,VisibilityMPH,Wind Direction,Wind SpeedMPH,Gust SpeedMPH,PrecipitationIn,Events,Conditions,WindDirDegrees,DateUTC
12:53 AM,37.9,37.0,97,30.31,6.0,Calm,Calm,-,N/A,,Overcast,0,2013-01-04 08:53:00
1:53 AM,37.0,36.0,96,30.32,6.0,Calm,Calm,-,N/A,,Overcast,0,2013-01-04 09:53:00
2:53 AM,37.0,36.0,96,30.32,6.0,Calm,Calm,-,N/A,,Mostly Cloudy,0,2013-01-04 10:53:00
3:53 AM,37.0,36.0,96,30.32,5.0,Calm,Calm,-,N/A,,Overcast,0,2013-01-04 11:53:00
5:53 AM,34.0,33.1,96,30.32,5.0,Calm,Calm,-,N/A,,Clear,0,2013-01-04 13:53:00
6:12 AM,33.8,33.8,100,30.31,1.5,Calm,Calm,-,N/A,,Clear,0,2013-01-04 14:12:00
6:14 AM,33.8,33.8,100,30.31,1.0,Calm,Calm,-,N/A,,Mist,0,2013-01-04 14:14:00
6:21 AM,33.8,33.8,100,30.31,0.2,Calm,Calm,-,N/A,Fog,Fog,0,2013-01-04 14:21:00
6:36 AM,33.8,32.0,93,30.31,0.8,Calm,Calm,-,N/A,,Mist,0,2013-01-04 14:36:00
6:41 AM,33.8,32.0,93,30.31,0.2,Calm,Calm,-,N/A,Fog,Fog,0,2013-01-04 14:41:00
6:53 AM,32.0,32.0,100,30.33,0.5,Calm,Calm,-,N/A,Fog,Fog,0,2013-01-04 14:53:00
7:03 AM,32.0,32.0,100,30.31,0.2,Calm,Calm,-,N/A,Fog,Fog,0,2013-01-04 15:03:00
7:28 AM,33.8,32.0,93,30.31,1.2,Calm,Calm,-,N/A,,Mostly Cloudy,0,2013-01-04 15:28:00
7:31 AM,32.0,32.0,100,30.31,3.0,Calm,Calm,-,N/A,,Mostly Cloudy,0,2013-01-04 15:31:00
7:40 AM,32.0,32.0,100,30.30,4.0,Calm,Calm,-,N/A,,Scattered Clouds,0,2013-01-04 15:40:00
7:53 AM,32.0,32.0,100,30.32,5.0,Calm,Calm,-,N/A,,Clear,0,2013-01-04 15:53:00
8:13 AM,32.0,32.0,100,30.31,3.0,South,3.5,-,N/A,,Partly Cloudy,170,2013-01-04 16:13:00
8:45 AM,33.8,33.8,100,30.32,2.5,Calm,Calm,-,N/A,,Mostly Cloudy,0,2013-01-04 16:45:00
8:49 AM,33.8,33.8,100,30.32,0.8,Calm,Calm,-,N/A,,Mist,0,2013-01-04 16:49:00
8:53 AM,33.1,33.1,100,30.34,0.5,Calm,Calm,-,N/A,Fog,Fog,0,2013-01-04 16:53:00
9:08 AM,33.8,32.0,93,30.33,2.5,Calm,Calm,-,N/A,,Mostly Cloudy,0,2013-01-04 17:08:00
9:12 AM,33.8,32.0,93,30.32,4.0,North,3.5,-,N/A,,Scattered Clouds,350,2013-01-04 17:12:00
9:53 AM,36.0,35.1,97,30.34,6.0,Calm,Calm,-,N/A,,Clear,0,2013-01-04 17:53:00
10:53 AM,36.0,35.1,97,30.33,4.0,SW,5.8,-,N/A,,Clear,230,2013-01-04 18:53:00
11:53 AM,44.1,37.0,76,30.29,10.0,Calm,Calm,-,N/A,,Clear,0,2013-01-04 19:53:00
12:53 PM,48.0,37.9,68,30.25,10.0,Calm,Calm,-,N/A,,Clear,0,2013-01-04 20:53:00
1:53 PM,50.0,37.9,63,30.21,10.0,Calm,Calm,-,N/A,,Clear,0,2013-01-04 21:53:00
2:53 PM,52.0,37.9,59,30.19,10.0,Calm,Calm,-,N/A,,Clear,0,2013-01-04 22:53:00
3:53 PM,51.1,39.0,63,30.18,10.0,Calm,Calm,-,N/A,,Clear,0,2013-01-04 23:53:00
5:53 PM,44.1,37.9,79,30.18,10.0,Calm,Calm,-,N/A,,Clear,0,2013-01-05 01:53:00
6:53 PM,42.1,37.9,85,30.19,10.0,Calm,Calm,-,N/A,,Clear,0,2013-01-05 02:53:00
7:53 PM,37.9,36.0,93,30.19,10.0,Calm,Calm,-,N/A,,Clear,0,2013-01-05 03:53:00
8:53 PM,37.9,35.1,89,30.19,8.0,Calm,Calm,-,N/A,,Clear,0,2013-01-05 04:53:00
9:53 PM,37.9,36.0,93,30.19,9.0,Calm,Calm,-,N/A,,Clear,0,2013-01-05 05:53:00
10:53 PM,36.0,35.1,97,30.20,8.0,Calm,Calm,-,N/A,,Clear,0,2013-01-05 06:53:00
11:53 PM,36.0,35.1,97,30.19,6.0,Calm,Calm,-,N/A,,Clear,0,2013-01-05 07:53:00